Location: ??????
(56.0120°N, 39.1740°E)
Time: 11:44:34
(UTC+00:00)

Cosmos 968 Rocket - Pass Details

Date: 14 April 2026
Orbit: 736 x 765 km, 74.0° (Epoch: 10 May)

Event Time Altitude Azimuth Distance (km) Brightness Sun altitude
Rises 21:12:03 0° 332° (NNW) 3,214 7.8 -24.3°
Reaches altitude 10° 21:14:28 10° 337° (NNW) 2,290 6.9 -24.3°
Maximum altitude 21:19:35 54° 55° (NE) 919 4.0 -24.3°
Enters shadow 21:21:11 39° 108° (ESE) 1,135 4.2 -24.3°
